Time,TemperatureF,DewpointF,PressureIn,WindDirection,WindDirectionDegrees,WindSpeedMPH,WindSpeedGustMPH,Humidity,HourlyPrecipIn,Conditions,Clouds,dailyrainin,SolarRadiationWatts/m^2,SoftwareType,DateUTC
2013-04-30 00:02:00,68.0,66.0,-100.00,NE,46,5.0,-999.0,90,0.00,,,-99.99,0.000000,,2013-04-30 04:02:00,
2013-04-30 00:12:00,68.0,65.0,-100.00,NNE,16,4.0,-999.0,91,0.00,,,-99.99,0.000000,,2013-04-30 04:12:00,
2013-04-30 00:22:00,68.0,65.0,-100.00,NNE,16,4.0,-999.0,91,0.00,,,-99.99,0.000000,,2013-04-30 04:22:00,
2013-04-30 00:32:00,67.0,65.0,-100.00,NE,34,4.0,-999.0,93,0.00,,,-99.99,0.000000,,2013-04-30 04:32:00,
2013-04-30 00:42:00,67.0,65.0,-100.00,North,3,4.0,-999.0,94,0.00,,,-99.99,0.000000,,2013-04-30 04:42:00,
2013-04-30 00:52:00,67.0,65.0,-100.00,North,3,4.0,-999.0,94,0.00,,,-99.99,0.000000,,2013-04-30 04:52:00,
2013-04-30 01:02:00,67.0,65.0,-100.00,NNE,17,4.0,-999.0,95,0.00,,,-99.99,0.100000,,2013-04-30 05:02:00,
2013-04-30 01:12:00,67.0,65.0,-100.00,NNE,17,2.0,-999.0,95,0.00,,,-99.99,0.200000,,2013-04-30 05:12:00,
2013-04-30 01:22:00,67.0,65.0,-100.00,NNE,17,2.0,-999.0,95,0.00,,,-99.99,0.200000,,2013-04-30 05:22:00,
2013-04-30 01:31:00,67.0,65.0,-100.00,NNW,333,2.0,-999.0,95,0.00,,,-99.99,0.200000,,2013-04-30 05:31:00,
2013-04-30 01:42:00,67.0,65.0,-100.00,North,4,3.0,-999.0,95,0.00,,,-99.99,0.200000,,2013-04-30 05:42:00,
2013-04-30 01:51:00,67.0,65.0,-100.00,North,4,3.0,-999.0,95,0.00,,,-99.99,0.200000,,2013-04-30 05:51:00,
2013-04-30 02:02:00,67.0,65.0,-100.00,NE,45,1.0,-999.0,95,0.00,,,-99.99,0.200000,,2013-04-30 06:02:00,
2013-04-30 02:12:00,66.0,65.0,-100.00,NW,314,1.0,-999.0,95,0.00,,,-99.99,0.200000,,2013-04-30 06:12:00,
2013-04-30 02:21:00,66.0,65.0,-100.00,NW,314,1.0,-999.0,95,0.00,,,-99.99,0.200000,,2013-04-30 06:21:00,
2013-04-30 02:32:00,66.0,65.0,-100.00,West,277,1.0,-999.0,95,0.00,,,-99.99,0.200000,,2013-04-30 06:32:00,
2013-04-30 02:42:00,66.0,65.0,-100.00,West,263,1.0,-999.0,96,0.00,,,-99.99,0.200000,,2013-04-30 06:42:00,
2013-04-30 02:52:00,66.0,65.0,-100.00,West,263,1.0,-999.0,96,0.00,,,-99.99,0.200000,,2013-04-30 06:52:00,
2013-04-30 03:01:00,66.0,65.0,-100.00,West,263,1.0,-999.0,96,0.00,,,-99.99,0.200000,,2013-04-30 07:01:00,
2013-04-30 03:11:00,66.0,65.0,-100.00,SSE,155,1.0,-999.0,96,0.00,,,-99.99,0.200000,,2013-04-30 07:11:00,
2013-04-30 03:21:00,66.0,65.0,-100.00,SSE,155,1.0,-999.0,96,0.00,,,-99.99,0.200000,,2013-04-30 07:21:00,
2013-04-30 03:31:00,66.0,65.0,-100.00,SSE,155,2.0,-999.0,96,0.00,,,-99.99,0.200000,,2013-04-30 07:31:00,
2013-04-30 03:42:00,66.0,65.0,-100.00,East,101,1.0,-999.0,96,0.00,,,-99.99,0.200000,,2013-04-30 07:42:00,
2013-04-30 03:52:00,66.0,65.0,-100.00,East,101,1.0,-999.0,96,0.00,,,-99.99,0.200000,,2013-04-30 07:52:00,
2013-04-30 04:02:00,66.0,65.0,-100.00,East,92,1.0,-999.0,96,0.00,,,-99.99,0.200000,,2013-04-30 08:02:00,
2013-04-30 04:11:00,66.0,65.0,-100.00,East,89,1.0,-999.0,97,0.00,,,-99.99,0.200000,,2013-04-30 08:11:00,
2013-04-30 04:22:00,66.0,65.0,-100.00,East,89,1.0,-999.0,97,0.00,,,-99.99,0.200000,,2013-04-30 08:22:00,
2013-04-30 04:32:00,66.0,65.0,-100.00,NE,48,3.0,-999.0,97,0.00,,,-99.99,0.200000,,2013-04-30 08:32:00,
2013-04-30 04:42:00,66.0,65.0,-100.00,NE,55,2.0,-999.0,97,0.00,,,-99.99,0.200000,,2013-04-30 08:42:00,
2013-04-30 04:52:00,66.0,65.0,-100.00,NE,55,2.0,-999.0,97,0.00,,,-99.99,0.200000,,2013-04-30 08:52:00,
2013-04-30 05:01:00,66.0,65.0,-100.00,East,84,1.0,-999.0,97,0.00,,,-99.99,0.200000,,2013-04-30 09:01:00,
2013-04-30 05:11:00,66.0,65.0,-100.00,SE,126,2.0,-999.0,97,0.00,,,-99.99,0.200000,,2013-04-30 09:11:00,
2013-04-30 05:22:00,66.0,65.0,-100.00,SE,126,2.0,-999.0,97,0.00,,,-99.99,0.200000,,2013-04-30 09:22:00,
2013-04-30 05:33:00,66.0,65.0,-100.00,ESE,117,2.0,-999.0,97,0.00,,,-99.99,0.300000,,2013-04-30 09:33:00,
2013-04-30 05:43:00,66.0,65.0,-100.00,NE,46,2.0,-999.0,97,0.00,,,-99.99,0.200000,,2013-04-30 09:43:00,
2013-04-30 05:52:00,66.0,65.0,-100.00,NE,46,2.0,-999.0,97,0.00,,,-99.99,0.200000,,2013-04-30 09:52:00,
2013-04-30 06:03:00,66.0,65.0,-100.00,NNE,12,3.0,-999.0,97,0.00,,,-99.99,0.200000,,2013-04-30 10:03:00,
2013-04-30 06:12:00,66.0,65.0,-100.00,ENE,68,2.0,-999.0,98,0.00,,,-99.99,0.200000,,2013-04-30 10:12:00,
2013-04-30 06:22:00,66.0,65.0,-100.00,ENE,68,2.0,-999.0,98,0.00,,,-99.99,0.200000,,2013-04-30 10:22:00,
2013-04-30 06:32:00,66.0,65.0,-100.00,SE,130,2.0,-999.0,98,0.00,,,-99.99,0.300000,,2013-04-30 10:32:00,
2013-04-30 06:41:00,66.0,65.0,-100.00,SE,143,2.0,-999.0,97,0.00,,,-99.99,0.300000,,2013-04-30 10:41:00,
2013-04-30 06:52:00,66.0,65.0,-100.00,SE,143,2.0,-999.0,97,0.00,,,-99.99,0.300000,,2013-04-30 10:52:00,
2013-04-30 07:02:00,-999.0,-99.9,-100.00,SSE,149,2.0,-999.0,98,0.00,,,-99.99,0.400000,,2013-04-30 11:02:00,
2013-04-30 07:11:00,67.0,67.0,-100.00,SE,144,3.0,-999.0,98,0.03,,,-99.99,0.900000,,2013-04-30 11:11:00,
2013-04-30 07:21:00,67.0,67.0,-100.00,SE,144,3.0,-999.0,98,0.03,,,-99.99,0.900000,,2013-04-30 11:21:00,
2013-04-30 07:31:00,68.0,67.0,-100.00,SE,130,3.0,-999.0,98,0.00,,,-99.99,2.900000,,2013-04-30 11:31:00,
2013-04-30 07:42:00,68.0,68.0,-100.00,ESE,122,2.0,-999.0,98,0.00,,,-99.99,6.700000,,2013-04-30 11:42:00,
2013-04-30 07:51:00,68.0,68.0,-100.00,ESE,122,2.0,-999.0,98,0.00,,,-99.99,6.700000,,2013-04-30 11:51:00,
2013-04-30 08:01:00,68.0,67.0,-100.00,NNW,342,2.0,-999.0,98,0.00,,,-99.99,19.400000,,2013-04-30 12:01:00,
2013-04-30 08:11:00,68.0,68.0,-100.00,NNW,344,3.0,-999.0,99,0.00,,,-99.99,40.900002,,2013-04-30 12:11:00,
2013-04-30 08:21:00,68.0,68.0,-100.00,NNW,344,3.0,-999.0,99,0.00,,,-99.99,40.900002,,2013-04-30 12:21:00,
2013-04-30 08:31:00,68.0,68.0,-100.00,NNW,336,3.0,-999.0,99,0.00,,,-99.99,48.500000,,2013-04-30 12:31:00,
2013-04-30 08:41:00,69.0,69.0,-100.00,South,187,2.0,-999.0,99,0.00,,,-99.99,74.300003,,2013-04-30 12:41:00,
2013-04-30 08:51:00,69.0,69.0,-100.00,South,187,2.0,-999.0,99,0.00,,,-99.99,74.300003,,2013-04-30 12:51:00,
2013-04-30 09:01:00,70.0,69.0,-100.00,South,182,2.0,-999.0,99,0.00,,,-99.99,103.800003,,2013-04-30 13:01:00,
2013-04-30 09:11:00,70.0,70.0,-100.00,SW,217,2.0,-999.0,99,0.00,,,-99.99,97.000000,,2013-04-30 13:11:00,
2013-04-30 09:21:00,70.0,70.0,-100.00,SW,217,2.0,-999.0,99,0.00,,,-99.99,97.000000,,2013-04-30 13:21:00,
2013-04-30 09:31:00,71.0,70.0,-100.00,SSW,208,3.0,-999.0,98,0.00,,,-99.99,85.400002,,2013-04-30 13:31:00,
2013-04-30 09:41:00,71.0,70.0,-100.00,SSW,195,4.0,-999.0,98,0.00,,,-99.99,94.699997,,2013-04-30 13:41:00,
2013-04-30 09:52:00,71.0,70.0,-100.00,SSW,195,4.0,-999.0,98,0.00,,,-99.99,94.699997,,2013-04-30 13:52:00,
2013-04-30 10:02:00,71.0,70.0,-100.00,West,272,1.0,-999.0,97,0.00,,,-99.99,80.500000,,2013-04-30 14:02:00,
2013-04-30 10:11:00,71.0,71.0,-100.00,WNW,283,2.0,-999.0,97,0.00,,,-99.99,161.800003,,2013-04-30 14:11:00,
2013-04-30 10:21:00,71.0,71.0,-100.00,WNW,283,2.0,-999.0,97,0.00,,,-99.99,161.800003,,2013-04-30 14:21:00,
2013-04-30 10:31:00,72.0,71.0,-100.00,SW,218,2.0,-999.0,96,0.00,,,-99.99,186.699997,,2013-04-30 14:31:00,
2013-04-30 10:41:00,72.0,71.0,-100.00,SW,221,4.0,-999.0,95,0.00,,,-99.99,193.600006,,2013-04-30 14:41:00,
2013-04-30 10:52:00,72.0,71.0,-100.00,SW,221,4.0,-999.0,95,0.00,,,-99.99,193.600006,,2013-04-30 14:52:00,
2013-04-30 11:01:00,73.0,71.0,-100.00,SW,220,4.0,-999.0,94,0.00,,,-99.99,210.399994,,2013-04-30 15:01:00,
2013-04-30 11:11:00,74.0,71.0,-100.00,SSW,207,4.0,-999.0,91,0.00,,,-99.99,369.799988,,2013-04-30 15:11:00,
2013-04-30 11:21:00,74.0,71.0,-100.00,SSW,207,4.0,-999.0,91,0.00,,,-99.99,369.799988,,2013-04-30 15:21:00,
2013-04-30 11:32:00,74.0,71.0,-100.00,WSW,245,3.0,-999.0,87,0.00,,,-99.99,645.799988,,2013-04-30 15:32:00,
2013-04-30 11:42:00,77.0,70.0,-100.00,South,176,3.0,-999.0,78,0.00,,,-99.99,788.000000,,2013-04-30 15:42:00,
2013-04-30 11:52:00,77.0,70.0,-100.00,South,176,3.0,-999.0,78,0.00,,,-99.99,788.000000,,2013-04-30 15:52:00,
2013-04-30 12:02:00,78.0,67.0,-100.00,SW,231,4.0,-999.0,69,0.00,,,-99.99,804.000000,,2013-04-30 16:02:00,
2013-04-30 12:12:00,79.0,66.0,-100.00,North,352,2.0,-999.0,64,0.00,,,-99.99,827.000000,,2013-04-30 16:12:00,
2013-04-30 12:23:00,79.0,66.0,-100.00,North,352,2.0,-999.0,64,0.00,,,-99.99,827.000000,,2013-04-30 16:23:00,
2013-04-30 12:33:00,80.0,66.0,-100.00,SW,235,3.0,-999.0,61,0.00,,,-99.99,855.000000,,2013-04-30 16:33:00,
2013-04-30 12:42:00,81.0,65.0,-100.00,SSW,195,4.0,-999.0,57,0.00,,,-99.99,872.000000,,2013-04-30 16:42:00,
2013-04-30 12:52:00,81.0,65.0,-100.00,SSW,195,4.0,-999.0,57,0.00,,,-99.99,872.000000,,2013-04-30 16:52:00,
2013-04-30 13:02:00,83.0,64.0,-100.00,SSW,198,3.0,-999.0,53,0.00,,,-99.99,885.000000,,2013-04-30 17:02:00,
2013-04-30 13:12:00,83.0,63.0,-100.00,North,7,3.0,-999.0,50,0.00,,,-99.99,906.000000,,2013-04-30 17:12:00,
2013-04-30 13:22:00,83.0,63.0,-100.00,North,7,3.0,-999.0,50,0.00,,,-99.99,906.000000,,2013-04-30 17:22:00,
2013-04-30 13:32:00,83.0,61.0,-100.00,ESE,102,4.0,-999.0,47,0.00,,,-99.99,906.000000,,2013-04-30 17:32:00,
2013-04-30 13:42:00,84.0,62.0,-100.00,SW,219,4.0,-999.0,46,0.00,,,-99.99,901.000000,,2013-04-30 17:42:00,
2013-04-30 13:52:00,84.0,62.0,-100.00,SW,219,4.0,-999.0,46,0.00,,,-99.99,901.000000,,2013-04-30 17:52:00,
2013-04-30 14:01:00,84.0,62.0,-100.00,SW,226,4.0,-999.0,46,0.00,,,-99.99,909.000000,,2013-04-30 18:01:00,
2013-04-30 14:11:00,85.0,61.0,-100.00,SE,135,4.0,-999.0,45,0.00,,,-99.99,860.000000,,2013-04-30 18:11:00,
2013-04-30 14:22:00,85.0,61.0,-100.00,SE,135,4.0,-999.0,45,0.00,,,-99.99,860.000000,,2013-04-30 18:22:00,
2013-04-30 14:32:00,85.0,61.0,-100.00,SSW,198,4.0,-999.0,44,0.00,,,-99.99,889.000000,,2013-04-30 18:32:00,
2013-04-30 14:42:00,86.0,61.0,-100.00,SSW,201,5.0,-999.0,43,0.00,,,-99.99,887.000000,,2013-04-30 18:42:00,
2013-04-30 14:52:00,86.0,61.0,-100.00,SSW,201,5.0,-999.0,43,0.00,,,-99.99,887.000000,,2013-04-30 18:52:00,
2013-04-30 15:01:00,87.0,61.0,-100.00,SW,214,5.0,-999.0,41,0.00,,,-99.99,888.000000,,2013-04-30 19:01:00,
2013-04-30 15:11:00,87.0,60.0,-100.00,SW,221,4.0,-999.0,41,0.00,,,-99.99,817.000000,,2013-04-30 19:11:00,
2013-04-30 15:22:00,87.0,60.0,-100.00,SW,221,4.0,-999.0,41,0.00,,,-99.99,817.000000,,2013-04-30 19:22:00,
2013-04-30 15:32:00,86.0,60.0,-100.00,SSE,161,5.0,-999.0,41,0.00,,,-99.99,545.900024,,2013-04-30 19:32:00,
2013-04-30 15:42:00,86.0,60.0,-100.00,SSE,161,5.0,-999.0,41,0.00,,,-99.99,545.900024,,2013-04-30 19:42:00,
2013-04-30 15:52:00,88.0,60.0,-100.00,ESE,113,3.0,-999.0,39,0.00,,,-99.99,912.000000,,2013-04-30 19:52:00,
2013-04-30 16:02:00,86.0,60.0,-100.00,ENE,60,6.0,-999.0,41,0.00,,,-99.99,302.600006,,2013-04-30 20:02:00,
2013-04-30 16:11:00,84.0,65.0,-100.00,NNE,24,10.0,-999.0,52,0.00,,,-99.99,581.099976,,2013-04-30 20:11:00,
2013-04-30 16:22:00,84.0,65.0,-100.00,NNE,24,10.0,-999.0,52,0.00,,,-99.99,581.099976,,2013-04-30 20:22:00,
2013-04-30 16:32:00,84.0,64.0,-100.00,NNE,32,12.0,-999.0,51,0.00,,,-99.99,620.000000,,2013-04-30 20:32:00,
2013-04-30 16:42:00,85.0,64.0,-100.00,NE,50,10.0,-999.0,49,0.00,,,-99.99,665.200012,,2013-04-30 20:42:00,
2013-04-30 16:52:00,85.0,64.0,-100.00,NE,50,10.0,-999.0,49,0.00,,,-99.99,665.200012,,2013-04-30 20:52:00,
2013-04-30 17:02:00,85.0,64.0,-100.00,ENE,61,10.0,-999.0,48,0.00,,,-99.99,618.299988,,2013-04-30 21:02:00,
2013-04-30 17:11:00,85.0,63.0,-100.00,ENE,58,10.0,-999.0,47,0.00,,,-99.99,543.500000,,2013-04-30 21:11:00,
2013-04-30 17:22:00,85.0,63.0,-100.00,ENE,58,10.0,-999.0,47,0.00,,,-99.99,543.500000,,2013-04-30 21:22:00,
2013-04-30 17:32:00,85.0,63.0,-100.00,ENE,69,10.0,-999.0,47,0.00,,,-99.99,489.600006,,2013-04-30 21:32:00,
2013-04-30 17:42:00,85.0,63.0,-100.00,ENE,65,9.0,-999.0,46,0.00,,,-99.99,457.200012,,2013-04-30 21:42:00,
2013-04-30 17:53:00,85.0,63.0,-100.00,ENE,65,9.0,-999.0,46,0.00,,,-99.99,457.200012,,2013-04-30 21:53:00,
2013-04-30 18:02:00,85.0,62.0,-100.00,ENE,64,8.0,-999.0,47,0.00,,,-99.99,193.000000,,2013-04-30 22:02:00,
2013-04-30 18:12:00,84.0,63.0,-100.00,NE,41,10.0,-999.0,49,0.00,,,-99.99,194.199997,,2013-04-30 22:12:00,
2013-04-30 18:23:00,84.0,63.0,-100.00,NE,41,10.0,-999.0,49,0.00,,,-99.99,194.199997,,2013-04-30 22:23:00,
2013-04-30 18:32:00,81.0,68.0,-100.00,NE,39,13.0,-999.0,64,0.00,,,-99.99,95.500000,,2013-04-30 22:32:00,
2013-04-30 18:42:00,79.0,67.0,-100.00,NE,45,12.0,-999.0,66,0.00,,,-99.99,77.300003,,2013-04-30 22:42:00,
2013-04-30 18:53:00,79.0,67.0,-100.00,NE,45,12.0,-999.0,66,0.00,,,-99.99,77.300003,,2013-04-30 22:53:00,
2013-04-30 19:02:00,78.0,67.0,-100.00,NE,37,11.0,-999.0,68,0.00,,,-99.99,45.200001,,2013-04-30 23:02:00,
2013-04-30 19:12:00,77.0,66.0,-100.00,NE,42,10.0,-999.0,69,0.00,,,-99.99,5.200000,,2013-04-30 23:12:00,
2013-04-30 19:22:00,77.0,66.0,-100.00,NE,42,10.0,-999.0,69,0.00,,,-99.99,5.200000,,2013-04-30 23:22:00,
2013-04-30 19:32:00,74.0,66.0,-100.00,WSW,237,7.0,-999.0,75,0.41,,,-99.99,1.500000,,2013-04-30 23:32:00,
2013-04-30 19:42:00,69.0,67.0,-100.00,North,5,11.0,-999.0,91,3.18,,,-99.99,10.200000,,2013-04-30 23:42:00,
2013-04-30 19:52:00,69.0,67.0,-100.00,North,5,11.0,-999.0,91,3.18,,,-99.99,10.200000,,2013-04-30 23:52:00,
2013-04-30 20:02:00,69.0,67.0,-100.00,ENE,69,8.0,-999.0,92,0.19,,,-99.99,27.000000,,2013-05-01 00:02:00,
2013-04-30 20:11:00,70.0,68.0,-100.00,ENE,62,8.0,-999.0,93,0.03,,,-99.99,15.200000,,2013-05-01 00:11:00,
2013-04-30 20:22:00,70.0,68.0,-100.00,ENE,62,8.0,-999.0,93,0.03,,,-99.99,15.200000,,2013-05-01 00:22:00,
2013-04-30 20:32:00,69.0,68.0,-100.00,ENE,73,6.0,-999.0,94,0.00,,,-99.99,2.100000,,2013-05-01 00:32:00,
2013-04-30 20:42:00,69.0,68.0,-100.00,ESE,105,6.0,-999.0,95,0.00,,,-99.99,1.000000,,2013-05-01 00:42:00,
2013-04-30 20:52:00,69.0,68.0,-100.00,ESE,105,6.0,-999.0,95,0.00,,,-99.99,1.000000,,2013-05-01 00:52:00,
2013-04-30 21:01:00,69.0,68.0,-100.00,East,93,5.0,-999.0,95,0.00,,,-99.99,1.000000,,2013-05-01 01:01:00,
2013-04-30 21:11:00,69.0,68.0,-100.00,East,90,4.0,-999.0,96,0.00,,,-99.99,1.000000,,2013-05-01 01:11:00,
2013-04-30 21:21:00,69.0,68.0,-100.00,East,90,4.0,-999.0,96,0.00,,,-99.99,1.000000,,2013-05-01 01:21:00,
2013-04-30 21:32:00,69.0,68.0,-100.00,ESE,119,5.0,-999.0,96,0.00,,,-99.99,1.000000,,2013-05-01 01:32:00,
2013-04-30 21:42:00,69.0,68.0,-100.00,SE,128,5.0,-999.0,96,0.00,,,-99.99,1.000000,,2013-05-01 01:42:00,
2013-04-30 21:52:00,69.0,68.0,-100.00,SE,128,5.0,-999.0,96,0.00,,,-99.99,1.000000,,2013-05-01 01:52:00,
2013-04-30 22:02:00,69.0,68.0,-100.00,SE,133,4.0,-999.0,96,0.00,,,-99.99,0.900000,,2013-05-01 02:02:00,
2013-04-30 22:11:00,69.0,68.0,-100.00,East,79,3.0,-999.0,96,0.00,,,-99.99,0.900000,,2013-05-01 02:11:00,
2013-04-30 22:21:00,69.0,68.0,-100.00,East,79,3.0,-999.0,96,0.00,,,-99.99,0.900000,,2013-05-01 02:21:00,
2013-04-30 22:32:00,69.0,68.0,-100.00,East,79,3.0,-999.0,96,0.00,,,-99.99,0.900000,,2013-05-01 02:32:00,
2013-04-30 22:42:00,67.0,67.0,-100.00,NNE,27,3.0,-999.0,96,0.00,,,-99.99,1.000000,,2013-05-01 02:42:00,
2013-04-30 22:52:00,67.0,67.0,-100.00,NNE,27,3.0,-999.0,96,0.00,,,-99.99,1.000000,,2013-05-01 02:52:00,
2013-04-30 23:02:00,67.0,67.0,-100.00,ENE,63,2.0,-999.0,97,0.00,,,-99.99,0.900000,,2013-05-01 03:02:00,
2013-04-30 23:11:00,67.0,67.0,-100.00,NE,56,2.0,-999.0,97,0.00,,,-99.99,0.900000,,2013-05-01 03:11:00,
2013-04-30 23:21:00,67.0,67.0,-100.00,NE,56,2.0,-999.0,97,0.00,,,-99.99,0.900000,,2013-05-01 03:21:00,
2013-04-30 23:33:00,67.0,66.0,-100.00,NE,35,2.0,-999.0,97,0.00,,,-99.99,0.900000,,2013-05-01 03:33:00,
2013-04-30 23:43:00,67.0,66.0,-100.00,NE,47,2.0,-999.0,97,0.00,,,-99.99,0.900000,,2013-05-01 03:43:00,
2013-04-30 23:53:00,67.0,66.0,-100.00,NE,47,2.0,-999.0,97,0.00,,,-99.99,0.900000,,2013-05-01 03:53:00,